| time (UTC) | temp C | wind direction | speed KPH | gust KPH | rain 1hr cm | rain 24hr cm | rain mn cm | humidity % | barometer mb |
| 20260504035108 | 11 | 181 | 8.0 | 11.3 | 0.00 | 0.00 | 0.00 | 62 | 1012.4 |
| 20260504032103 | 11 | 192 | 8.0 | 9.7 | 0.00 | 0.00 | 0.00 | 62 | 1012.8 |
| 20260504025101 | 12 | 194 | 4.8 | 9.7 | 0.00 | 0.00 | 0.00 | 59 | 1013.0 |
| 20260504022057 | 12 | 183 | 9.7 | 9.7 | 0.00 | 0.00 | 0.00 | 60 | 1012.9 |
| 20260504015055 | 12 | 182 | 6.4 | 8.0 | 0.00 | 0.00 | 0.00 | 60 | 1013.0 |
| 20260504012050 | 12 | 188 | 8.0 | 9.7 | 0.00 | 0.00 | 0.00 | 55 | 1013.1 |
| 20260504005046 | 13 | 193 | 4.8 | 8.0 | 0.00 | 0.00 | 0.00 | 50 | 1013.0 |
| 20260504002046 | 13 | 210 | 4.8 | 8.0 | 0.00 | 0.00 | 0.00 | 47 | 1012.9 |
| 20260503235041 | 14 | 233 | 11.3 | 16.1 | 0.00 | 0.00 | 0.00 | 45 | 1012.8 |
| 20260503232041 | 14 | 172 | 6.4 | 9.7 | 0.00 | 0.00 | 0.00 | 45 | 1012.7 |
| 20260503225038 | 14 | 188 | 16.1 | 25.7 | 0.00 | 0.00 | 0.00 | 43 | 1013.0 |
| 20260503222035 | 15 | 180 | 17.7 | 20.9 | 0.00 | 0.00 | 0.00 | 45 | 1013.3 |
| 20260503215034 | 15 | 199 | 4.8 | 12.9 | 0.00 | 0.00 | 0.00 | 41 | 1014.0 |
| 20260503212030 | 15 | 216 | 9.7 | 16.1 | 0.00 | 0.00 | 0.00 | 39 | 1014.3 |
| 20260503205026 | 13 | 143 | 0.0 | 1.6 | 0.00 | 0.00 | 0.00 | 53 | 1014.7 |
| 20260503202021 | 11 | 145 | 0.0 | 0.0 | 0.00 | 0.00 | 0.00 | 55 | 1015.7 |
| 20260503195020 | 11 | 309 | 4.8 | 8.0 | 0.00 | 0.00 | 0.00 | 52 | 1016.9 |
| 20260503192019 | 13 | 253 | 4.8 | 9.7 | 0.00 | 0.00 | 0.00 | 42 | 1016.6 |
| 20260503185015 | 14 | 261 | 8.0 | 12.9 | 0.00 | 0.00 | 0.00 | 38 | 1016.8 |
| 20260503182015 | 15 | 201 | 3.2 | 4.8 | 0.00 | 0.00 | 0.00 | 34 | 1017.2 |
| 20260503175014 | 15 | 181 | 16.1 | 22.5 | 0.00 | 0.00 | 0.00 | 35 | 1017.6 |
| 20260503172012 | 15 | 216 | 3.2 | 9.7 | 0.00 | 0.00 | 0.00 | 39 | 1017.9 |
| 20260503071921 | 2 | 253 | 1.6 | 3.2 | 0.00 | 0.00 | 0.00 | 78 | 1018.7 |
| 20260503054911 | 2 | 311 | 1.6 | 1.6 | 0.00 | 0.00 | 0.00 | 81 | 1019.1 |
| 20260503051910 | 2 | 311 | 1.6 | 1.6 | 0.00 | 0.00 | 0.00 | 87 | 1019.3 |
| 20260503044908 | 2 | 311 | 0.0 | 0.0 | 0.00 | 0.00 | 0.00 | 80 | 1019.4 |